sat.trackr.live / text

‹ back to catalog

STARLINK-33848

NORAD 63705 · 2025-087J

PAYLOAD ACTIVE UNKNOWN

§ Identity

Operator
Country
US
Launch date
2025-04-28
Launch site
AFWTR
Launch vehicle
Mass (kg)
RCS (m²)

Purposes: comms

External: N2YO · Heavens-Above · Gunter

§ Orbital elements

Epoch: 2026-09-20T14:25:21.584928Z

Period
93.85 min
Inclination
53.1592°
Eccentricity
0.0000835
Mean motion
15.34411207 rev/d
Perigee alt
462.1 km
Apogee alt
463.2 km
Semi-major
6,840.8 km
B*
4.2755e-4
RAAN
33.3466°
Arg perigee
84.0383°
Mean anomaly
276.0715°
Rev number
7,904

§ Raw data

STARLINK-338481 63705U 25087J   26263.60094427  .00014102  00000+0  42755-3 0  99972 63705  53.1592  33.3466 0000835  84.0383 276.0715 15.34411207 79041

JSON: /api/v1/satellites/63705 · /tle

For live sub-satellite position, see the globe view (requires WebGL).

§ Visibility from observer

Set your observer location to see the next 7 days of passes ≥ 10°. The values pass through the URL so the page stays shareable.

No JS? Fill the form by hand. The geolocation button needs JavaScript.